TimeCST,TemperatureF,Dew PointF,Humidity,Sea Level PressureIn,VisibilityMPH,Wind Direction,Wind SpeedMPH,Gust SpeedMPH,PrecipitationIn,Events,Conditions,WindDirDegrees,DateUTC
12:10 AM,35.6,23.0,60,30.26,10.0,NE,19.6,-,N/A,,Overcast,40,2013-01-24 06:10:00
12:30 AM,35.6,21.2,56,30.28,10.0,NNE,17.3,24.2,N/A,,Overcast,30,2013-01-24 06:30:00
12:50 AM,35.6,21.2,56,30.29,10.0,NE,18.4,23.0,N/A,,Overcast,40,2013-01-24 06:50:00
1:10 AM,33.8,21.2,60,30.28,10.0,NE,18.4,21.9,N/A,,Overcast,40,2013-01-24 07:10:00
1:30 AM,32.0,19.4,60,30.27,10.0,NE,16.1,-,N/A,,Overcast,40,2013-01-24 07:30:00
1:50 AM,32.0,19.4,60,30.28,10.0,NE,15.0,18.4,N/A,,Overcast,40,2013-01-24 07:50:00
2:10 AM,32.0,19.4,60,30.28,10.0,NE,19.6,23.0,N/A,,Overcast,40,2013-01-24 08:10:00
2:30 AM,32.0,19.4,60,30.28,10.0,NE,17.3,24.2,N/A,,Overcast,40,2013-01-24 08:30:00
2:50 AM,30.2,17.6,60,30.28,10.0,NE,13.8,-,N/A,,Overcast,40,2013-01-24 08:50:00
3:10 AM,30.2,17.6,60,30.29,10.0,NE,16.1,21.9,N/A,,Overcast,40,2013-01-24 09:10:00
3:30 AM,28.4,17.6,64,30.30,10.0,NE,13.8,-,N/A,,Overcast,40,2013-01-24 09:30:00
3:50 AM,28.4,17.6,64,30.29,10.0,NE,11.5,-,N/A,,Overcast,50,2013-01-24 09:50:00
4:10 AM,28.4,17.6,64,30.28,10.0,NE,13.8,-,N/A,,Overcast,40,2013-01-24 10:10:00
4:30 AM,26.6,17.6,69,30.29,10.0,NE,12.7,-,N/A,,Overcast,40,2013-01-24 10:30:00
4:50 AM,26.6,17.6,69,30.29,10.0,NNE,15.0,-,N/A,,Overcast,30,2013-01-24 10:50:00
5:10 AM,26.6,17.6,69,30.29,10.0,NE,15.0,-,N/A,,Overcast,40,2013-01-24 11:10:00
5:30 AM,26.6,15.8,64,30.28,10.0,NE,12.7,-,N/A,,Overcast,50,2013-01-24 11:30:00
5:50 AM,26.6,17.6,69,30.28,10.0,NE,15.0,-,N/A,,Overcast,50,2013-01-24 11:50:00
6:10 AM,26.6,15.8,64,30.29,10.0,NE,12.7,-,N/A,,Overcast,40,2013-01-24 12:10:00
6:30 AM,26.6,15.8,64,30.29,10.0,NE,15.0,19.6,N/A,,Overcast,40,2013-01-24 12:30:00
6:50 AM,26.6,14.0,59,30.29,10.0,NE,13.8,-,N/A,,Overcast,40,2013-01-24 12:50:00
7:10 AM,26.6,14.0,59,30.28,10.0,NE,17.3,-,N/A,,Overcast,50,2013-01-24 13:10:00
7:50 AM,26.6,14.0,59,30.31,10.0,NE,15.0,-,N/A,,Overcast,40,2013-01-24 13:50:00
8:10 AM,26.6,14.0,59,30.31,10.0,NE,12.7,-,N/A,,Overcast,40,2013-01-24 14:10:00
8:30 AM,26.6,14.0,59,30.30,10.0,NE,15.0,-,N/A,,Overcast,40,2013-01-24 14:30:00
8:50 AM,26.6,14.0,59,30.29,10.0,NE,13.8,17.3,N/A,,Overcast,40,2013-01-24 14:50:00
9:10 AM,26.6,14.0,59,30.30,10.0,NE,13.8,-,N/A,,Overcast,40,2013-01-24 15:10:00
9:30 AM,26.6,14.0,59,30.30,10.0,NNE,13.8,-,N/A,,Overcast,30,2013-01-24 15:30:00
9:50 AM,26.6,14.0,59,30.30,10.0,NNE,12.7,18.4,N/A,,Overcast,30,2013-01-24 15:50:00
10:10 AM,26.6,14.0,59,30.31,10.0,NNE,10.4,-,N/A,,Overcast,30,2013-01-24 16:10:00
10:30 AM,28.4,14.0,55,30.32,10.0,NNE,11.5,-,N/A,,Overcast,30,2013-01-24 16:30:00
10:50 AM,28.4,14.0,55,30.32,10.0,NNE,10.4,-,N/A,,Overcast,30,2013-01-24 16:50:00
11:10 AM,28.4,14.0,55,30.33,10.0,NE,11.5,-,N/A,,Overcast,40,2013-01-24 17:10:00
11:30 AM,28.4,14.0,55,30.33,10.0,NNE,13.8,-,N/A,,Overcast,20,2013-01-24 17:30:00
11:50 AM,28.4,14.0,55,30.30,10.0,NNE,13.8,-,N/A,,Overcast,30,2013-01-24 17:50:00
12:10 PM,28.4,14.0,55,30.30,10.0,NE,13.8,-,N/A,,Overcast,40,2013-01-24 18:10:00
12:30 PM,28.4,14.0,55,30.28,10.0,NE,11.5,-,N/A,,Overcast,50,2013-01-24 18:30:00
12:50 PM,28.4,14.0,55,30.26,10.0,NE,11.5,16.1,N/A,,Overcast,40,2013-01-24 18:50:00
1:30 PM,28.4,14.0,55,30.24,10.0,NNE,11.5,-,N/A,,Overcast,20,2013-01-24 19:30:00
1:50 PM,28.4,14.0,55,30.22,9.0,NNE,10.4,-,N/A,,Overcast,20,2013-01-24 19:50:00
2:10 PM,28.4,14.0,55,30.21,9.0,ENE,6.9,-,N/A,,Overcast,60,2013-01-24 20:10:00
2:30 PM,28.4,14.0,55,30.20,9.0,NE,9.2,-,N/A,,Overcast,50,2013-01-24 20:30:00
2:50 PM,26.6,15.8,64,30.20,9.0,NE,6.9,-,N/A,,Overcast,50,2013-01-24 20:50:00
3:10 PM,28.4,14.0,55,30.20,9.0,NNE,5.8,-,N/A,,Overcast,30,2013-01-24 21:10:00
3:30 PM,28.4,15.8,59,30.20,10.0,NE,9.2,-,N/A,,Overcast,40,2013-01-24 21:30:00
3:50 PM,28.4,15.8,59,30.19,9.0,NNE,3.5,-,N/A,,Overcast,30,2013-01-24 21:50:00
4:10 PM,28.4,15.8,59,30.14,9.0,ENE,11.5,-,N/A,,Overcast,60,2013-01-24 22:10:00
4:50 PM,28.4,15.8,59,30.17,9.0,SE,3.5,-,N/A,,Overcast,140,2013-01-24 22:50:00
5:10 PM,28.4,15.8,59,30.16,9.0,ESE,3.5,-,N/A,,Overcast,120,2013-01-24 23:10:00
5:30 PM,28.4,15.8,59,30.17,8.0,Calm,Calm,-,N/A,,Overcast,0,2013-01-24 23:30:00
5:50 PM,28.4,17.6,64,30.16,10.0,Calm,Calm,-,N/A,,Overcast,0,2013-01-24 23:50:00
6:10 PM,28.4,17.6,64,30.16,10.0,Calm,Calm,-,N/A,,Overcast,0,2013-01-25 00:10:00
6:30 PM,28.4,17.6,64,30.17,10.0,WSW,3.5,-,N/A,,Overcast,250,2013-01-25 00:30:00
6:50 PM,28.4,17.6,64,30.18,10.0,SSW,3.5,-,N/A,,Overcast,200,2013-01-25 00:50:00
7:10 PM,28.4,17.6,64,30.18,10.0,West,3.5,-,N/A,,Overcast,260,2013-01-25 01:10:00
7:30 PM,28.4,17.6,64,30.16,9.0,WSW,3.5,-,N/A,,Overcast,250,2013-01-25 01:30:00
7:50 PM,28.4,17.6,64,30.15,10.0,Calm,Calm,-,N/A,,Overcast,0,2013-01-25 01:50:00
8:10 PM,28.4,19.4,69,30.16,10.0,Calm,Calm,-,N/A,,Overcast,0,2013-01-25 02:10:00
8:30 PM,28.4,19.4,69,30.15,9.0,Calm,Calm,-,N/A,,Overcast,0,2013-01-25 02:30:00
8:50 PM,28.4,19.4,69,30.16,8.0,NW,3.5,-,N/A,,Overcast,320,2013-01-25 02:50:00
9:10 PM,28.4,19.4,69,30.16,9.0,NW,3.5,-,N/A,,Overcast,320,2013-01-25 03:10:00
9:30 PM,28.4,19.4,69,30.15,10.0,North,3.5,-,N/A,,Overcast,10,2013-01-25 03:30:00
9:50 PM,28.4,19.4,69,30.14,9.0,NNE,4.6,-,N/A,,Overcast,20,2013-01-25 03:50:00
10:10 PM,28.4,19.4,69,30.15,10.0,NE,4.6,-,N/A,,Overcast,40,2013-01-25 04:10:00
10:30 PM,28.4,19.4,69,30.15,9.0,NNE,3.5,-,N/A,,Overcast,30,2013-01-25 04:30:00
10:50 PM,28.4,19.4,69,30.16,9.0,NNE,3.5,-,N/A,,Overcast,20,2013-01-25 04:50:00
11:10 PM,28.4,19.4,69,30.16,9.0,North,5.8,-,N/A,,Overcast,360,2013-01-25 05:10:00
11:30 PM,28.4,19.4,69,30.16,9.0,North,5.8,-,N/A,,Overcast,10,2013-01-25 05:30:00
11:50 PM,28.4,19.4,69,30.15,9.0,NNE,3.5,-,N/A,,Overcast,20,2013-01-25 05:50:00